• Join FlightAware (Why Join?)
  • Login
  • US Flag 
08:27AM EST


 

Airport Tracker/Info


-or-


 

Live Flight TrackerFlight Track Log ✈ RSP374 ✈ 14-May-2013 ✈ KSMO - KSJC

Flight Track Log - Related Links

Times and Time Zones

All times are in EDT time to prevent confusion due to time zone crossing. See the RSP374 flight status page for this flight to view local times or setup timezone preferences in your user account.

Time Position Orientation Groundspeed Altitude Reporting Facility
EDT Latitude Longitude Course Direction KTS MPH feet Rate Location/Type
09:04PM 33.9833 -118.4833 251° West 150 173 1,900  Level Southern California TRACON
09:05PM 33.9703 -118.5294 251° West 204 235 2,700 1,245 Climbing Los Angeles Center
09:06PM 33.9375 -118.6072 243° Southwest 260 299 4,100 1,548 Climbing Los Angeles Center
09:07PM 33.9269 -118.7017 262° West 263 303 5,900 1,452 Climbing Los Angeles Center
09:08PM 33.9186 -118.7814 263° West 270 311 7,100 1,210 Climbing Los Angeles Center
09:09PM 33.9078 -118.8731 262° West 277 319 8,400 1,366 Climbing Los Angeles Center
09:10PM 33.9125 -118.9783 273° West 277 319 9,900 1,268 Climbing Los Angeles Center
09:11PM 33.9658 -119.0481 313° West 280 322 11,000 1,306 Climbing Los Angeles Center
09:12PM 34.0189 -119.1186 312° West 283 326 12,600 1,951 Climbing Los Angeles Center
09:13PM 34.0672 -119.1819 313° West 256 295 15,000 2,195 Climbing Los Angeles Center
09:14PM 34.1147 -119.2336 318° Northwest 232 267 17,100 1,839 Climbing Los Angeles Center
09:15PM 34.1664 -119.2806 323° Northwest 233 268 18,800 1,548 Climbing Los Angeles Center
09:16PM 34.2200 -119.3322 321° Northwest 246 283 20,300 1,561 Climbing Los Angeles Center
09:17PM 34.2892 -119.3950 323° Northwest 261 300 22,000 829 Climbing Los Angeles Center
09:18PM 34.3533 -119.4553 322° Northwest 294 338 22,000  Level Los Angeles Center
09:19PM 34.4242 -119.5228 322° Northwest 320 368 22,000  Level Los Angeles Center
09:20PM 34.4983 -119.5906 323° Northwest 333 383 22,000  Level Los Angeles Center
09:21PM 34.5561 -119.6458 322° Northwest 333 383 22,000  Level Los Angeles Center
09:22PM 34.6478 -119.7286 323° Northwest 334 384 22,000  Level Los Angeles Center
09:24PM 34.7206 -119.7981 322° Northwest 335 386 22,000  Level Los Angeles Center
09:25PM 34.8086 -119.8811 322° Northwest 335 386 22,000  Level Los Angeles Center
09:26PM 34.8972 -119.9639 323° Northwest 336 387 22,000  Level Los Angeles Center
09:27PM 34.9694 -120.0333 322° Northwest 333 383 22,000  Level Los Angeles Center
09:28PM 35.0428 -120.1028 322° Northwest 334 384 22,000  Level Los Angeles Center
09:29PM 35.1092 -120.1647 323° Northwest 332 382 22,000  Level Los Angeles Center
09:30PM 35.1814 -120.2342 322° Northwest 332 382 22,000  Level Los Angeles Center
09:31PM 35.2686 -120.3172 322° Northwest 332 382 22,000  Level Los Angeles Center
09:32PM 35.3386 -120.3853 322° Northwest 328 377 22,000  Level Los Angeles Center
09:33PM 35.4103 -120.4569 321° Northwest 338 389 22,000  Level Los Angeles Center
09:33PM 35.4400 -120.4861 321° Northwest 338 389 22,000  Level Oakland Center
09:34PM 35.5264 -120.5675 323° Northwest 333 383 22,000  Level Oakland Center
09:35PM 35.5978 -120.6361 322° Northwest 328 377 22,000  Level Oakland Center
09:36PM 35.6700 -120.7061 322° Northwest 329 379 22,000  Level Oakland Center
09:37PM 35.7419 -120.7761 322° Northwest 329 379 22,000  Level Oakland Center
09:39PM 35.8144 -120.8469 322° Northwest 332 382 22,000  Level Oakland Center
09:40PM 35.8875 -120.9169 322° Northwest 333 383 22,000  Level Oakland Center
09:41PM 35.9592 -120.9881 321° Northwest 332 382 22,000  Level Oakland Center
09:42PM 36.0319 -121.0561 323° Northwest 331 381 22,000 -197 Level Oakland Center
09:43PM 36.1089 -121.1189 327° Northwest 331 381 21,600 -934 Descending Oakland Center
09:44PM 36.1867 -121.1850 326° Northwest 336 387 20,100 -787 Descending Oakland Center
09:45PM 36.2767 -121.2647 324° Northwest 333 383 20,000 -49 Descending Oakland Center
09:46PM 36.3517 -121.3278 326° Northwest 328 377 20,000 -98 Level Oakland Center
09:47PM 36.4258 -121.3919 325° Northwest 326 375 19,800 -344 Descending Oakland Center
09:48PM 36.5022 -121.4578 325° Northwest 331 381 19,300 -492 Descending Oakland Center
09:49PM 36.5961 -121.4789 350° North 338 389 18,800 -590 Descending Oakland Center
09:50PM 36.6917 -121.4981 351° North 346 398 18,100 -1,623 Descending Oakland Center
09:51PM 36.7836 -121.5158 351° North 338 389 15,500 -2,508 Descending Oakland Center
09:52PM 36.8708 -121.5319 352° North 323 372 13,000 -2,410 Descending Oakland Center
09:53PM 36.9569 -121.5492 351° North 316 364 10,600 -2,311 Descending Oakland Center
09:54PM 37.0350 -121.5639 351° North 292 336 8,300 -1,918 Descending Oakland Center
09:55PM 37.0933 -121.6342 316° Northwest 279 321 6,700 -1,648 Descending Oakland Center
09:55PM 37.1333 -121.6667 327° Northwest 266 306 5,800 -1,574 Descending Northern Cal TRACON
09:56PM 37.1558 -121.7022 308° West 270 311 5,100 -652 Descending Oakland Center
09:57PM 37.2064 -121.7589 318° Northwest 266 306 4,800 -1,057 Descending Oakland Center
09:59PM 37.3000 -121.8667 318° Northwest 171 197 1,400 -1,183 Descending Northern Cal TRACON
10:00PM 37.3333 -121.9000 322° Northwest 112 129 700 -712 Descending Northern Cal TRACON
10:02PM 37.3500 -121.9167 North  Level FlightAware Approximate
10:09PM 37.3627 -121.9291 North  Level Estimated
10:10PM 37.3627 -121.9291 North  Level Estimated